Rechercher aéroport 
image banner adimage banner adimage banner ad
image banner ad

PA71 - Dwight's Delight

Situé à Dushore, United States

ICAO - PA71, IATA -

Données fournies par Airmate  

Information générale

Coordonnées: N41°31'15" W76°27'44"
Élévation : 1717 feet MSL.
Variation magnétique : -11° East
Voir autres Aéroports à Pennsylvania

Données opérationnelles

Special qualification required
Heure actuelle UTC:
Heure actuelle locale:
Météo à : KIPT - Williamsport Rgnl ( 49 km )
METAR: KIPT 291554Z VRB05KT 7SM BKN016 22/18 A2991 RMK AO2 SLP126 T02170178
TAF: KIPT 291515Z 2915/3012 07007KT P6SM BKN016 FM291900 15006KT 4SM -RA VCTS OVC035CB FM300200 29003KT 5SM BR VCSH OVC015 FM300500 29003KT 5SM BR OVC008
Voir NOTAMs / SUP AIP / TFR affectant cet aéroport [VIEW]
Fréquences de communication: [VIEW]

Pistes:

Identifiant RWYQFULongueur (ft)Largeur (ft)SurfaceLDA (ft)
07199090GRASS
25199090GRASS

Coordonnées de l'aéroport

Adresse: Dushore United States

Vue satellite de PA71